Home   Weather   Richmond   Past weeks

Flag for Canada Past Weather in Richmond, British Columbia, Canada — Yesterday and Last 2 Weeks

Now
57 °F

Mostly cloudy.


Feels Like: 57 °F
Forecast: 55 / 65 °F
Wind: 5 mph from Northeast

Location: Vancouver International Airport

Current Time: Sep 25, 2016 at 8:46:39 AM

Latest Report: Sep 25, 2016 at 8:00 AM


Visibility: 15 mi

Pressure: 30.41 "Hg

Humidity: 77%

Dew Point: 50 °F

Location of RichmondLocation

Past Weather in Richmond — Graph

°F

Richmond Temperature Yesterday

Maximum temperature yesterday: 63 °F (at 3:00 PM)
Minimum temperature yesterday: 50 °F (at 4:00 AM)
Average temperature yesterday: 56 °F

High & Low Weather Summary for the Past Weeks

 TemperatureHumidityPressure
High68 °F (Sep 10, 11:00 AM)100% (Sep 17, 9:00 AM)30.41 "Hg (Sep 17, 9:00 AM)
Low46 °F (Sep 12, 7:00 AM)52% (Sep 22, 5:00 PM)29.80 "Hg (Sep 17, 11:00 AM)
Average58 °F81%30.08 "Hg
* Reported Sep 10 7:00 AM — Sep 25 7:00 AM, Richmond, Weather by CustomWeather, © 2016

Note: Actual official high and low records may vary slightly from our data, if they occured in-between our weather recording intervals... More about our weather records

Advertising

Richmond Weather History for the Previous 24 Hours

Scroll right to see more
 ConditionsComfort  
Time TempWeatherWind HumidityBarometerVisibility
7:00 AM
Sun, Sep 25
55 °FMostly cloudy.5 mph82%30.40 "Hg15 mi
6:00 AM55 °FMostly cloudy.8 mph82%30.39 "Hg15 mi
5:00 AM55 °FOvercast.7 mph77%30.39 "Hg15 mi
4:00 AM55 °FMostly cloudy.9 mph82%30.38 "Hg15 mi
3:00 AM55 °FMostly cloudy.9 mph82%30.39 "Hg15 mi
2:00 AM55 °FMostly cloudy.9 mph82%30.40 "Hg15 mi
1:00 AM55 °FMostly cloudy.6 mph82%30.41 "Hg15 mi
12:00 AM57 °FLight rain. Mostly cloudy.9 mph82%30.40 "Hg15 mi
11:00 PM
Sat, Sep 24
57 °FLight rain. Mostly cloudy.2 mph82%30.41 "Hg15 mi
10:00 PM57 °FMostly cloudy.7 mph88%30.38 "Hg15 mi
9:00 PM57 °FLight rain. Mostly cloudy.3 mph88%30.38 "Hg15 mi
8:00 PM57 °FLight rain. Overcast.5 mph88%30.37 "Hg15 mi
7:00 PM57 °FCloudy.2 mph82%30.34 "Hg20 mi
6:00 PM59 °FCloudy.2 mph77%30.34 "Hg20 mi
5:46 PM59 °FCloudy.No wind77%30.35 "Hg20 mi
5:00 PM59 °FMostly cloudy.2 mph77%30.34 "Hg20 mi
4:00 PM63 °FPartly sunny.3 mph56%30.36 "Hg30 mi
3:00 PM63 °FBroken clouds.7 mph64%30.35 "Hg30 mi
2:00 PM61 °FMostly cloudy.6 mph68%30.38 "Hg20 mi
1:00 PM59 °FMore clouds than sun.5 mph72%30.38 "Hg15 mi
12:00 PM57 °FMostly cloudy.6 mph82%30.40 "Hg15 mi
11:00 AM55 °FMostly cloudy.6 mph88%30.40 "Hg15 mi
10:00 AM55 °FMostly cloudy.5 mph88%30.39 "Hg15 mi
9:00 AM54 °FMore clouds than sun.7 mph94%30.34 "Hg15 mi
8:00 AM54 °FPartly sunny.2 mph88%30.34 "Hg15 mi
Weather by CustomWeather, © 2016

See weather overviewHow to use our weather pages